Temp
49 50 51 52 53 53 53 53 53 54 54 55 55 56 57 58 57 57 58 58 58 58 58 59 60 60 61 61 62 62 63 63 64 64 65 66 66 67 68 69 69 68 67 66 66 66 66 66 65 64 64 63 63 63 62 62 62 61 61 60 59 59 58 57 56 55 54 53 53
49 50 50 51 52 53 53 53 53 54 55 55 55 56 57 58 57 57 57 58 58 59 60 60 60 61 61 61 62 62 63 63 64 64 65 66 67 68 68 69 68 68 67 65 65 65 65 65 64 63 63 62 62 62 62 61 61 61 60 59 59 58 58 57 56 55 54 54 53
49 49 50 51 52 52 53 53 53 53 54 55 56 57 58 58 58 58 58 59 59 60 60 61 61 61 61 61 62 63 63 63 64 64 65 66 67 67 68 68 68 67 67 64 64 64 65 65 64 63 62 62 61 61 61 61 61 60 59 59 58 58 57 56 55 55 54 53 53
50 50 50 51 52 52 52 52 53 53 54 55 56 57 58 58 58 58 58 59 60 60 60 59 60 60 61 61 62 63 63 63 64 65 65 66 67 67 68 68 67 67 66 64 64 64 64 65 64 63 62 61 61 61 60 60 60 59 59 59 58 57 56 56 55 54 53 53 52
50 51 51 51 52 52 53 53 53 53 54 55 56 57 58 58 58 58 58 58 59 60 61 60 60 60 61 62 63 63 63 64 64 65 65 66 66 67 67 68 67 67 66 65 64 64 64 63 62 62 61 61 61 60 60 60 59 58 58 58 57 57 56 55 54 54 53 52 52
51 51 52 52 52 53 53 53 53 54 55 56 56 57 57 58 57 58 58 59 60 60 60 60 59 60 60 62 62 63 63 64 64 65 65 66 66 66 67 67 66 66 65 64 64 63 62 62 61 60 60 60 60 60 60 60 58 57 57 56 56 56 55 55 54 53 52 52 51
51 51 51 52 52 52 53 53 53 54 55 56 57 57 57 57 57 58 59 60 60 60 59 59 58 58 60 61 62 63 63 64 64 65 65 65 65 66 66 66 66 65 65 63 62 62 61 61 60 59 59 59 58 59 59 58 57 57 56 55 55 55 54 54 53 52 52 51 51
50 51 51 52 52 52 53 53 54 54 55 56 57 57 57 57 57 58 59 60 60 59 59 59 58 58 59 61 63 63 63 64 64 64 65 65 65 66 66 65 65 64 63 62 61 61 60 60 59 58 58 58 58 58 58 58 57 56 55 54 54 54 53 53 52 52 52 51 51
50 50 51 52 53 53 53 54 54 54 55 56 56 57 57 57 57 58 59 59 59 59 60 59 59 58 58 61 63 63 63 63 64 64 64 64 64 64 64 64 64 62 61 61 61 60 60 59 58 58 58 57 57 57 57 57 56 55 54 53 53 53 53 53 52 52 52 51 51
49 50 52 53 53 54 54 55 54 54 54 55 56 57 57 57 58 58 59 60 59 59 60 60 59 57 58 62 63 63 63 64 63 63 63 63 63 63 63 63 62 61 60 60 60 59 59 58 58 57 57 57 57 56 56 56 55 54 53 52 52 52 52 52 52 52 52 51 51
50 51 52 53 54 54 54 55 53 52 53 54 55 56 57 57 58 59 59 59 59 59 59 59 58 57 58 62 63 63 63 64 63 62 62 62 62 63 62 62 61 60 59 59 59 59 58 58 57 57 56 56 56 56 55 55 54 53 52 52 52 52 51 51 52 52 51 51 51
51 51 52 53 53 54 54 53 52 52 52 54 55 56 57 58 59 59 59 59 59 59 59 59 58 58 59 62 63 64 64 64 62 62 62 62 62 62 62 61 60 59 59 58 58 58 58 57 57 56 55 55 55 55 54 54 53 53 52 52 52 51 51 51 51 51 51 50 50
51 52 52 53 53 54 53 52 51 52 53 54 55 56 57 58 59 59 59 59 59 59 59 59 58 58 59 60 63 64 63 63 62 62 62 61 62 62 61 60 59 58 58 58 58 58 57 57 56 55 54 54 54 54 54 53 53 52 52 51 51 51 51 50 50 50 50 49 49
52 52 52 53 53 53 52 51 52 53 54 55 56 56 57 58 59 59 59 59 59 58 58 58 58 58 58 58 63 63 62 61 61 61 61 61 61 61 60 59 58 58 58 58 58 57 57 56 55 54 54 54 54 54 54 53 53 53 52 51 51 51 50 50 50 49 49 49 48
52 52 52 52 53 52 52 52 53 54 55 56 56 57 57 58 59 59 59 59 58 58 58 58 58 57 57 57 61 62 62 61 61 61 61 60 60 60 58 57 57 57 57 57 57 56 56 55 55 54 54 54 54 54 54 53 53 53 52 52 51 51 50 50 50 49 49 49 48
52 52 52 52 52 52 52 53 54 56 56 57 57 57 57 58 58 58 58 58 58 58 58 57 57 57 57 57 60 62 62 61 60 60 60 59 58 58 57 57 57 57 56 56 55 55 55 55 55 55 55 54 54 54 54 53 53 52 52 52 51 51 50 50 50 50 50 49 49
52 52 52 52 52 52 53 54 55 56 56 57 57 57 57 58 58 58 58 58 58 58 57 56 56 56 57 58 61 61 61 60 59 59 58 58 57 57 57 57 57 56 56 56 55 55 54 54 55 55 55 55 54 54 53 53 52 52 52 51 51 51 51 51 51 51 51 50 50
51 51 52 52 52 53 54 55 55 56 56 56 56 56 56 57 58 58 58 58 58 57 56 56 56 57 58 59 60 60 60 59 58 58 58 57 57 57 57 56 56 56 56 56 55 55 55 54 55 55 54 54 54 53 53 53 52 52 51 51 51 52 52 52 52 51 51 51 51
51 51 52 52 53 53 54 55 55 56 56 56 55 55 56 56 57 58 58 58 57 57 56 56 57 57 58 59 59 59 59 58 58 57 57 57 57 57 56 56 56 56 56 55 55 55 54 54 54 54 54 53 53 52 52 52 51 51 51 51 52 52 52 52 52 52 52 52 51
51 52 52 53 53 54 54 54 54 55 55 55 55 55 56 56 57 57 56 56 57 57 57 57 57 58 58 59 58 58 58 58 57 57 57 57 56 56 56 56 56 56 55 55 55 54 54 54 54 53 53 52 52 51 51 51 50 51 51 51 52 52 52 52 52 51 51 51 51
52 52 52 53 53 53 53 54 54 55 56 56 56 56 56 56 56 55 55 56 56 56 57 57 58 58 58 57 57 57 57 57 57 56 56 56 56 56 55 55 55 55 55 54 54 54 54 53 53 52 52 51 51 50 50 50 50 50 51 51 51 51 51 51 51 50 50 50 50
52 52 52 52 52 53 54 54 54 55 55 55 55 55 55 55 55 54 55 55 56 56 57 57 58 58 57 57 57 57 56 56 56 56 55 55 55 55 55 55 54 54 54 54 53 53 53 53 52 52 51 50 49 49 49 49 49 50 50 50 50 50 50 50 50 50 50 50 50
52 52 52 52 52 53 53 54 54 54 54 54 54 55 55 54 54 55 55 56 56 57 57 57 58 58 58 57 57 56 56 55 55 55 55 55 55 54 54 54 54 53 53 53 53 52 52 51 51 50 50 49 48 48 48 49 49 49 49 49 49 49 49 50 50 50 50 50 49
52 52 52 52 52 52 53 53 53 53 53 53 54 54 54 55 55 55 56 56 56 57 57 57 57 58 58 57 57 56 55 55 55 55 55 55 54 54 54 54 53 53 52 52 52 52 51 50 49 49 48 48 47 48 48 49 49 48 48 49 49 49 49 49 49 49 49 49 49
52 52 52 52 52 52 52 53 53 53 53 53 54 54 55 55 55 56 56 56 56 56 56 56 56 57 56 56 56 55 55 55 55 54 54 54 54 53 53 52 52 52 52 52 52 52 51 50 49 48 48 48 48 48 49 49 49 49 49 49 49 49 49 49 49 49 50 50 49
53 52 52 52 52 52 52 52 52 53 53 54 54 55 55 55 56 56 56 55 55 55 55 55 55 55 55 55 55 55 55 55 54 54 53 53 53 52 52 52 52 51 51 51 51 51 51 51 50 49 49 49 49 49 49 49 50 50 49 49 48 48 48 48 49 49 50 50 50
52 52 51 52 52 52 53 53 53 54 54 55 55 55 55 55 55 55 55 55 55 55 55 54 54 54 54 54 54 54 54 54 54 53 53 52 52 52 52 51 51 51 51 51 51 51 51 50 50 50 49 49 49 49 49 49 49 49 49 48 48 48 49 49 49 50 50 50 50
51 51 51 53 53 54 54 55 55 55 55 55 55 55 55 55 55 54 54 54 54 54 54 54 54 54 54 54 54 53 53 53 53 53 52 52 52 52 51 51 51 51 51 51 51 51 50 50 50 50 49 49 48 48 48 48 47 48 48 49 49 50 50 50 50 50 50 50 50
51 52 53 55 55 55 56 56 56 55 55 55 55 55 55 54 54 54 54 54 54 54 53 53 54 54 53 53 53 53 53 53 52 52 52 52 52 51 51 50 50 50 50 51 50 50 50 50 50 50 49 49 48 48 47 47 47 47 47 49 50 50 50 50 50 50 50 50 51
53 54 55 56 56 56 56 56 55 55 54 54 54 54 54 54 54 54 53 53 53 53 53 53 53 53 52 52 52 52 52 52 52 52 52 51 51 50 50 49 49 49 50 50 50 50 50 50 50 50 50 49 49 48 47 46 45 45 45 47 48 48 49 49 49 50 50 50 50
55 55 56 56 55 55 55 55 54 54 54 54 54 54 53 53 53 53 53 53 53 53 53 53 53 52 52 52 52 52 52 51 51 51 51 50 50 49 49 48 48 49 49 50 50 50 50 50 50 50 50 49 49 48 47 45 45 44 44 45 45 46 46 46 47 47 48 48 47
55 55 55 54 54 54 54 54 54 54 53 53 53 53 52 52 52 52 52 53 52 52 52 52 52 51 51 51 51 51 51 50 50 50 50 49 49 48 48 48 48 48 49 50 50 50 50 50 50 49 49 49 48 47 46 45 44 44 44 44 44 44 44 44 44 44 44 44 44
55 54 54 53 53 53 53 53 53 53 53 53 52 52 52 51 51 52 52 52 52 51 51 51 50 50 50 50 50 50 50 50 50 50 50 50 49 49 48 48 48 48 49 50 50 50 50 49 49 49 48 48 47 46 45 45 44 43 43 43 43 43 43 43 43 43 43 43 43
54 54 53 53 53 53 53 53 52 52 52 52 51 51 51 51 51 51 50 50 50 50 50 50 50 50 50 50 50 50 50 50 50 50 50 50 49 49 48 47 48 48 49 49 49 49 49 49 48 48 47 46 45 44 44 44 43 43 42 42 42 42 43 43 43 43 44 44 45
54 54 53 53 52 52 52 52 52 51 51 51 50 50 50 50 50 50 50 50 50 50 50 50 50 50 50 50 50 50 50 50 50 50 49 49 49 48 47 47 47 48 49 49 49 49 48 48 48 47 46 45 44 44 43 43 42 42 42 41 42 42 43 44 45 45 46 46 46
54 53 53 52 52 52 51 51 51 51 50 50 50 50 50 50 50 50 50 50 50 49 49 49 50 50 49 49 50 50 49 49 49 49 48 48 48 47 46 46 47 47 48 49 48 48 48 48 47 47 46 45 44 43 43 42 42 41 41 41 42 42 43 45 45 46 46 46 46
54 53 52 52 51 51 51 51 51 50 50 50 50 50 50 50 50 50 50 50 50 49 49 49 49 49 48 48 48 48 48 49 48 48 47 47 47 46 46 46 46 47 47 48 48 48 48 47 47 46 45 44 43 43 43 42 41 41 41 42 43 44 45 46 46 46 46 46 46
53 53 52 51 51 51 51 51 51 50 50 50 50 50 50 50 50 50 50 50 49 49 48 48 48 48 48 48 48 48 48 48 48 47 46 46 46 46 46 46 46 46 47 47 48 47 47 47 47 46 45 44 43 43 42 42 41 41 42 42 43 44 45 46 46 46 46 46 46
52 52 52 51 51 51 51 50 50 50 50 50 49 49 50 49 49 49 50 50 49 49 48 47 47 47 47 48 47 47 47 48 48 47 46 46 46 46 46 46 46 46 46 47 47 47 47 47 47 46 46 44 43 43 43 42 42 42 43 43 44 44 45 46 46 46 46 46 46
51 52 52 51 51 50 50 50 50 49 49 49 49 49 49 49 49 49 49 49 49 49 48 47 47 47 47 47 47 47 47 47 47 47 47 46 46 46 46 46 46 45 46 46 46 47 47 47 47 46 46 45 44 44 44 43 43 43 43 44 44 44 45 45 46 46 46 46 46
50 50 50 50 50 50 49 49 49 49 49 49 48 48 48 48 48 48 48 48 48 48 47 47 47 47 47 46 46 46 46 46 46 46 46 46 46 46 46 46 46 45 45 46 46 46 47 47 47 47 46 45 45 45 45 45 44 43 44 44 44 44 45 45 45 46 46 46 46
MSLP
1003.85 1003.89 1003.85 1003.85 1003.93 1003.93 1004.01 1004.13 1004.25 1004.25 1004.25 1004.25 1004.21 1004.09 1003.93 1003.89 1003.89 1003.97 1004.09 1004.21 1004.25 1004.25 1004.25 1004.25 1004.29 1004.33 1004.37 1004.37 1004.45 1004.53 1004.57 1004.65 1004.73 1004.81 1004.85 1004.89 1004.93 1004.97 1005.09 1005.17 1005.37 1005.65 1005.85 1006.09 1006.37 1006.65 1006.81 1006.97 1007.17 1007.37 1007.53 1007.73 1007.85 1008.01 1008.17 1008.37 1008.53 1008.73 1008.93 1009.13 1009.29 1009.53 1009.81 1010.09 1010.37 1010.61 1010.85 1011.09 1011.37
1003.65 1003.69 1003.73 1003.77 1003.81 1003.85 1003.93 1003.97 1004.09 1004.13 1004.17 1004.13 1004.09 1004.01 1003.89 1003.85 1003.85 1003.93 1004.01 1004.09 1004.09 1004.09 1004.09 1004.09 1004.13 1004.21 1004.21 1004.25 1004.33 1004.41 1004.49 1004.53 1004.61 1004.65 1004.69 1004.69 1004.81 1004.89 1004.93 1005.05 1005.29 1005.53 1005.77 1006.01 1006.29 1006.53 1006.77 1006.93 1007.09 1007.33 1007.53 1007.69 1007.81 1007.97 1008.17 1008.37 1008.53 1008.69 1008.93 1009.09 1009.37 1009.57 1009.81 1010.09 1010.37 1010.65 1010.89 1011.13 1011.41
1003.41 1003.53 1003.61 1003.65 1003.65 1003.69 1003.77 1003.81 1003.93 1004.01 1004.05 1004.05 1004.01 1003.93 1003.81 1003.81 1003.81 1003.89 1003.93 1003.93 1003.97 1003.97 1003.93 1003.89 1004.01 1004.09 1004.09 1004.09 1004.17 1004.25 1004.33 1004.41 1004.49 1004.53 1004.57 1004.61 1004.69 1004.77 1004.85 1005.01 1005.21 1005.45 1005.69 1005.97 1006.29 1006.53 1006.65 1006.85 1007.09 1007.29 1007.49 1007.65 1007.77 1007.93 1008.09 1008.33 1008.53 1008.73 1008.93 1009.09 1009.37 1009.61 1009.85 1010.09 1010.37 1010.65 1010.93 1011.21 1011.45
1003.17 1003.33 1003.41 1003.45 1003.49 1003.53 1003.65 1003.73 1003.81 1003.89 1003.93 1003.97 1003.93 1003.85 1003.77 1003.77 1003.77 1003.81 1003.81 1003.85 1003.81 1003.81 1003.81 1003.85 1003.93 1004.01 1004.01 1004.01 1004.01 1004.09 1004.17 1004.33 1004.37 1004.37 1004.41 1004.53 1004.57 1004.65 1004.77 1004.93 1005.21 1005.37 1005.65 1005.97 1006.25 1006.49 1006.61 1006.77 1007.01 1007.21 1007.41 1007.57 1007.65 1007.85 1008.09 1008.33 1008.57 1008.77 1008.97 1009.17 1009.41 1009.61 1009.81 1010.09 1010.37 1010.65 1010.97 1011.25 1011.45
1002.97 1003.09 1003.21 1003.29 1003.37 1003.41 1003.53 1003.69 1003.81 1003.85 1003.89 1003.89 1003.81 1003.73 1003.65 1003.69 1003.69 1003.69 1003.77 1003.81 1003.73 1003.69 1003.73 1003.85 1003.93 1003.97 1003.97 1003.93 1003.89 1003.93 1004.09 1004.21 1004.25 1004.25 1004.29 1004.45 1004.53 1004.61 1004.77 1004.93 1005.17 1005.37 1005.57 1005.93 1006.21 1006.41 1006.57 1006.69 1006.97 1007.21 1007.37 1007.53 1007.65 1007.85 1008.09 1008.33 1008.61 1008.81 1009.01 1009.21 1009.45 1009.65 1009.89 1010.09 1010.45 1010.73 1010.97 1011.21 1011.45
1002.81 1002.97 1003.09 1003.17 1003.29 1003.37 1003.53 1003.65 1003.81 1003.81 1003.81 1003.69 1003.65 1003.57 1003.57 1003.57 1003.65 1003.65 1003.65 1003.61 1003.61 1003.61 1003.65 1003.81 1003.93 1003.97 1003.93 1003.81 1003.81 1003.89 1003.97 1004.05 1004.09 1004.13 1004.21 1004.33 1004.49 1004.65 1004.81 1004.93 1005.13 1005.33 1005.57 1005.89 1006.17 1006.37 1006.57 1006.81 1007.01 1007.21 1007.37 1007.53 1007.69 1007.89 1008.09 1008.37 1008.61 1008.81 1009.05 1009.29 1009.49 1009.69 1009.93 1010.17 1010.45 1010.73 1010.93 1011.13 1011.41
1002.77 1002.89 1003.01 1003.13 1003.25 1003.37 1003.53 1003.65 1003.77 1003.77 1003.73 1003.61 1003.49 1003.41 1003.45 1003.49 1003.57 1003.57 1003.53 1003.49 1003.53 1003.57 1003.69 1003.81 1003.93 1003.93 1003.81 1003.69 1003.69 1003.81 1003.89 1003.93 1003.97 1004.05 1004.13 1004.25 1004.45 1004.61 1004.77 1004.93 1005.09 1005.33 1005.61 1005.93 1006.21 1006.41 1006.65 1006.81 1007.05 1007.21 1007.37 1007.53 1007.73 1007.97 1008.21 1008.41 1008.65 1008.85 1009.09 1009.33 1009.57 1009.81 1009.97 1010.25 1010.53 1010.73 1010.93 1011.13 1011.37
1002.81 1002.89 1002.97 1003.09 1003.21 1003.37 1003.49 1003.57 1003.65 1003.65 1003.57 1003.45 1003.37 1003.33 1003.37 1003.41 1003.53 1003.53 1003.53 1003.41 1003.49 1003.57 1003.65 1003.73 1003.81 1003.85 1003.77 1003.65 1003.57 1003.65 1003.77 1003.81 1003.89 1003.97 1004.09 1004.25 1004.41 1004.57 1004.73 1004.93 1005.09 1005.37 1005.65 1005.93 1006.25 1006.45 1006.65 1006.85 1007.05 1007.21 1007.37 1007.53 1007.77 1008.01 1008.25 1008.45 1008.65 1008.93 1009.13 1009.41 1009.65 1009.85 1010.09 1010.33 1010.53 1010.69 1010.93 1011.17 1011.41
1002.81 1002.93 1002.97 1003.09 1003.21 1003.33 1003.41 1003.49 1003.53 1003.53 1003.45 1003.29 1003.29 1003.33 1003.37 1003.45 1003.53 1003.53 1003.45 1003.37 1003.45 1003.53 1003.61 1003.65 1003.69 1003.77 1003.73 1003.61 1003.53 1003.57 1003.65 1003.77 1003.89 1003.97 1004.09 1004.25 1004.45 1004.57 1004.73 1004.93 1005.17 1005.49 1005.81 1006.05 1006.25 1006.37 1006.61 1006.81 1007.01 1007.17 1007.37 1007.57 1007.77 1008.01 1008.25 1008.53 1008.73 1008.97 1009.21 1009.53 1009.73 1009.93 1010.17 1010.37 1010.53 1010.77 1010.97 1011.21 1011.53
1002.81 1002.93 1002.93 1003.05 1003.13 1003.21 1003.33 1003.37 1003.49 1003.53 1003.49 1003.37 1003.33 1003.33 1003.37 1003.49 1003.53 1003.45 1003.37 1003.37 1003.45 1003.53 1003.53 1003.53 1003.65 1003.77 1003.69 1003.45 1003.49 1003.53 1003.65 1003.69 1003.89 1004.05 1004.17 1004.29 1004.45 1004.61 1004.81 1005.01 1005.29 1005.61 1005.89 1006.09 1006.25 1006.37 1006.61 1006.81 1007.01 1007.21 1007.41 1007.65 1007.85 1008.09 1008.37 1008.61 1008.81 1009.05 1009.33 1009.57 1009.81 1010.01 1010.25 1010.45 1010.65 1010.89 1011.09 1011.37 1011.65
1002.81 1002.93 1002.93 1002.97 1003.05 1003.17 1003.25 1003.29 1003.45 1003.53 1003.53 1003.37 1003.33 1003.33 1003.41 1003.49 1003.49 1003.37 1003.33 1003.37 1003.49 1003.53 1003.49 1003.53 1003.65 1003.73 1003.65 1003.37 1003.45 1003.53 1003.65 1003.73 1003.93 1004.13 1004.29 1004.41 1004.53 1004.69 1004.89 1005.13 1005.37 1005.69 1005.93 1006.09 1006.25 1006.41 1006.61 1006.81 1007.05 1007.29 1007.53 1007.77 1007.97 1008.25 1008.49 1008.69 1008.93 1009.17 1009.41 1009.65 1009.85 1010.09 1010.33 1010.57 1010.81 1011.01 1011.25 1011.53 1011.73
1002.85 1002.93 1002.93 1003.01 1003.05 1003.13 1003.21 1003.29 1003.45 1003.53 1003.49 1003.37 1003.33 1003.37 1003.37 1003.37 1003.37 1003.33 1003.33 1003.37 1003.45 1003.49 1003.53 1003.53 1003.61 1003.65 1003.61 1003.41 1003.37 1003.45 1003.57 1003.77 1004.01 1004.25 1004.37 1004.49 1004.61 1004.77 1004.97 1005.21 1005.53 1005.81 1005.93 1006.09 1006.25 1006.41 1006.65 1006.89 1007.13 1007.41 1007.65 1007.93 1008.13 1008.37 1008.57 1008.81 1009.05 1009.29 1009.53 1009.73 1009.93 1010.13 1010.41 1010.69 1010.93 1011.21 1011.45 1011.65 1011.85
1002.93 1002.93 1003.01 1003.05 1003.09 1003.13 1003.21 1003.37 1003.45 1003.41 1003.33 1003.29 1003.33 1003.37 1003.37 1003.29 1003.21 1003.21 1003.29 1003.37 1003.45 1003.53 1003.53 1003.53 1003.61 1003.65 1003.65 1003.53 1003.41 1003.45 1003.65 1003.89 1004.09 1004.29 1004.41 1004.53 1004.65 1004.85 1005.09 1005.37 1005.65 1005.85 1006.01 1006.17 1006.33 1006.53 1006.77 1007.01 1007.21 1007.49 1007.77 1008.01 1008.25 1008.53 1008.69 1008.93 1009.09 1009.37 1009.57 1009.81 1010.05 1010.29 1010.57 1010.81 1011.09 1011.37 1011.57 1011.73 1011.93
1003.01 1003.05 1003.09 1003.13 1003.17 1003.21 1003.33 1003.41 1003.37 1003.25 1003.17 1003.17 1003.25 1003.29 1003.29 1003.21 1003.17 1003.21 1003.29 1003.37 1003.45 1003.53 1003.61 1003.61 1003.65 1003.73 1003.77 1003.69 1003.53 1003.53 1003.73 1003.97 1004.17 1004.33 1004.49 1004.61 1004.77 1004.93 1005.21 1005.53 1005.73 1005.93 1006.05 1006.25 1006.45 1006.69 1006.93 1007.21 1007.41 1007.65 1007.89 1008.13 1008.41 1008.69 1008.89 1009.05 1009.21 1009.37 1009.57 1009.81 1010.09 1010.37 1010.65 1010.93 1011.21 1011.37 1011.57 1011.77 1011.97
1003.09 1003.09 1003.17 1003.21 1003.21 1003.29 1003.37 1003.33 1003.21 1003.09 1003.05 1003.09 1003.17 1003.21 1003.21 1003.17 1003.17 1003.21 1003.33 1003.37 1003.49 1003.57 1003.65 1003.65 1003.69 1003.81 1003.89 1003.93 1003.73 1003.69 1003.81 1004.09 1004.25 1004.41 1004.57 1004.77 1004.97 1005.21 1005.41 1005.65 1005.81 1005.93 1006.13 1006.41 1006.65 1006.93 1007.13 1007.37 1007.61 1007.81 1008.05 1008.29 1008.57 1008.85 1009.05 1009.21 1009.33 1009.49 1009.65 1009.89 1010.17 1010.45 1010.73 1011.01 1011.21 1011.41 1011.57 1011.81 1012.13
1003.09 1003.13 1003.17 1003.21 1003.25 1003.29 1003.25 1003.17 1003.05 1003.01 1003.01 1003.05 1003.09 1003.13 1003.17 1003.13 1003.21 1003.25 1003.33 1003.37 1003.45 1003.53 1003.65 1003.65 1003.77 1003.89 1004.05 1004.09 1003.85 1003.77 1003.89 1004.17 1004.37 1004.57 1004.73 1004.93 1005.21 1005.45 1005.65 1005.81 1005.93 1006.09 1006.29 1006.61 1006.89 1007.13 1007.37 1007.53 1007.73 1007.93 1008.17 1008.37 1008.65 1008.93 1009.13 1009.29 1009.49 1009.65 1009.85 1010.09 1010.33 1010.57 1010.81 1011.05 1011.25 1011.49 1011.73 1012.01 1012.37
1003.17 1003.21 1003.21 1003.29 1003.29 1003.21 1003.17 1003.09 1003.01 1003.01 1003.01 1003.05 1003.09 1003.13 1003.17 1003.17 1003.21 1003.25 1003.29 1003.41 1003.45 1003.53 1003.65 1003.77 1003.85 1004.01 1004.09 1004.01 1003.81 1003.81 1004.05 1004.25 1004.53 1004.69 1004.85 1005.09 1005.33 1005.53 1005.69 1005.85 1006.05 1006.25 1006.49 1006.77 1007.01 1007.25 1007.49 1007.69 1007.89 1008.05 1008.25 1008.49 1008.73 1008.97 1009.21 1009.37 1009.61 1009.81 1010.05 1010.25 1010.49 1010.69 1010.89 1011.09 1011.33 1011.61 1011.93 1012.29 1012.61
1003.17 1003.21 1003.21 1003.25 1003.21 1003.13 1003.09 1003.05 1003.05 1003.09 1003.09 1003.09 1003.17 1003.21 1003.25 1003.25 1003.21 1003.25 1003.33 1003.41 1003.45 1003.53 1003.65 1003.81 1003.93 1003.93 1003.93 1003.85 1003.85 1003.97 1004.21 1004.45 1004.65 1004.81 1005.01 1005.21 1005.41 1005.61 1005.81 1005.93 1006.21 1006.41 1006.65 1006.85 1007.09 1007.29 1007.53 1007.81 1007.97 1008.17 1008.37 1008.61 1008.89 1009.13 1009.37 1009.53 1009.81 1010.01 1010.25 1010.45 1010.61 1010.81 1010.97 1011.21 1011.49 1011.81 1012.21 1012.53 1012.81
1003.13 1003.13 1003.17 1003.17 1003.13 1003.09 1003.09 1003.09 1003.13 1003.17 1003.21 1003.21 1003.29 1003.37 1003.37 1003.37 1003.29 1003.29 1003.37 1003.53 1003.57 1003.61 1003.69 1003.81 1003.81 1003.85 1003.81 1003.85 1004.05 1004.25 1004.41 1004.61 1004.81 1004.97 1005.17 1005.37 1005.53 1005.73 1005.93 1006.09 1006.37 1006.53 1006.77 1006.97 1007.21 1007.41 1007.65 1007.85 1008.05 1008.25 1008.49 1008.77 1009.05 1009.29 1009.53 1009.77 1010.01 1010.21 1010.37 1010.57 1010.73 1010.93 1011.13 1011.45 1011.81 1012.13 1012.45 1012.77 1012.97
1003.17 1003.17 1003.17 1003.13 1003.13 1003.17 1003.21 1003.21 1003.21 1003.21 1003.25 1003.29 1003.37 1003.37 1003.37 1003.37 1003.37 1003.45 1003.57 1003.65 1003.69 1003.73 1003.77 1003.81 1003.81 1003.81 1003.93 1004.09 1004.33 1004.53 1004.65 1004.81 1004.93 1005.13 1005.37 1005.53 1005.69 1005.85 1006.09 1006.25 1006.53 1006.73 1006.93 1007.13 1007.37 1007.57 1007.81 1007.97 1008.25 1008.45 1008.65 1008.89 1009.21 1009.49 1009.77 1010.01 1010.25 1010.37 1010.53 1010.73 1010.93 1011.13 1011.45 1011.81 1012.13 1012.45 1012.69 1012.93 1013.09
1003.21 1003.21 1003.21 1003.21 1003.21 1003.25 1003.29 1003.33 1003.33 1003.33 1003.33 1003.33 1003.37 1003.37 1003.37 1003.45 1003.57 1003.65 1003.73 1003.77 1003.81 1003.81 1003.85 1003.85 1003.89 1003.97 1004.13 1004.37 1004.53 1004.69 1004.85 1005.01 1005.17 1005.33 1005.53 1005.69 1005.85 1006.05 1006.25 1006.45 1006.69 1006.93 1007.09 1007.29 1007.53 1007.73 1007.93 1008.17 1008.37 1008.61 1008.81 1009.09 1009.37 1009.65 1009.93 1010.21 1010.37 1010.57 1010.73 1010.93 1011.21 1011.49 1011.77 1012.09 1012.37 1012.65 1012.89 1013.05 1013.17
1003.37 1003.37 1003.45 1003.45 1003.45 1003.37 1003.37 1003.37 1003.37 1003.41 1003.41 1003.41 1003.49 1003.53 1003.57 1003.65 1003.81 1003.89 1003.89 1003.85 1003.81 1003.81 1003.89 1003.93 1004.09 1004.25 1004.37 1004.53 1004.65 1004.85 1005.05 1005.21 1005.37 1005.53 1005.65 1005.89 1006.09 1006.29 1006.49 1006.65 1006.89 1007.09 1007.29 1007.53 1007.73 1007.93 1008.13 1008.37 1008.57 1008.81 1009.05 1009.37 1009.65 1009.93 1010.17 1010.37 1010.53 1010.77 1011.01 1011.25 1011.53 1011.81 1012.09 1012.37 1012.61 1012.81 1013.01 1013.17 1013.29
1003.53 1003.53 1003.61 1003.61 1003.53 1003.49 1003.41 1003.41 1003.49 1003.53 1003.57 1003.61 1003.69 1003.81 1003.89 1003.93 1004.01 1003.97 1003.93 1003.85 1003.81 1003.85 1003.97 1004.13 1004.29 1004.45 1004.57 1004.69 1004.81 1005.01 1005.21 1005.37 1005.57 1005.73 1005.89 1006.09 1006.33 1006.53 1006.73 1006.93 1007.09 1007.29 1007.53 1007.69 1007.93 1008.09 1008.33 1008.53 1008.81 1009.05 1009.33 1009.65 1009.93 1010.21 1010.37 1010.57 1010.77 1010.97 1011.21 1011.49 1011.77 1012.05 1012.33 1012.61 1012.81 1013.05 1013.21 1013.37 1013.53
1003.65 1003.77 1003.85 1003.81 1003.81 1003.73 1003.65 1003.65 1003.65 1003.77 1003.81 1003.89 1003.93 1004.01 1004.05 1004.05 1004.01 1003.93 1003.89 1003.81 1003.89 1004.01 1004.17 1004.37 1004.53 1004.61 1004.77 1004.93 1005.05 1005.21 1005.37 1005.57 1005.73 1005.93 1006.13 1006.33 1006.53 1006.77 1006.93 1007.17 1007.37 1007.53 1007.73 1007.93 1008.09 1008.25 1008.45 1008.69 1008.97 1009.33 1009.65 1009.93 1010.21 1010.41 1010.61 1010.81 1011.01 1011.21 1011.37 1011.65 1011.93 1012.25 1012.53 1012.85 1013.09 1013.25 1013.45 1013.65 1013.81
1003.97 1004.09 1004.17 1004.25 1004.21 1004.13 1004.09 1004.01 1003.97 1004.01 1004.05 1004.01 1004.01 1003.97 1003.97 1003.97 1003.97 1003.93 1003.89 1003.93 1004.09 1004.25 1004.41 1004.57 1004.73 1004.89 1005.01 1005.17 1005.29 1005.45 1005.65 1005.77 1005.93 1006.17 1006.37 1006.61 1006.81 1007.01 1007.21 1007.41 1007.65 1007.85 1008.09 1008.25 1008.33 1008.45 1008.61 1008.81 1009.17 1009.53 1009.85 1010.17 1010.37 1010.61 1010.81 1011.01 1011.17 1011.33 1011.53 1011.81 1012.09 1012.45 1012.81 1013.09 1013.33 1013.53 1013.65 1013.85 1013.97
1004.13 1004.25 1004.33 1004.41 1004.37 1004.29 1004.25 1004.17 1004.17 1004.13 1004.09 1004.05 1003.97 1003.93 1003.93 1003.97 1004.01 1004.01 1004.09 1004.21 1004.37 1004.53 1004.69 1004.85 1005.01 1005.13 1005.29 1005.37 1005.57 1005.69 1005.85 1006.05 1006.25 1006.37 1006.57 1006.81 1007.05 1007.25 1007.49 1007.69 1007.93 1008.13 1008.33 1008.49 1008.57 1008.69 1008.85 1009.09 1009.37 1009.65 1009.97 1010.25 1010.53 1010.73 1010.97 1011.21 1011.37 1011.57 1011.81 1012.05 1012.33 1012.65 1012.93 1013.25 1013.53 1013.69 1013.85 1013.97 1014.09
1004.21 1004.25 1004.25 1004.25 1004.13 1004.09 1004.05 1004.09 1004.09 1004.09 1004.09 1004.05 1003.97 1004.01 1004.09 1004.09 1004.17 1004.25 1004.37 1004.53 1004.65 1004.81 1004.97 1005.13 1005.25 1005.41 1005.53 1005.65 1005.81 1005.97 1006.17 1006.37 1006.53 1006.65 1006.85 1007.09 1007.29 1007.49 1007.69 1007.97 1008.21 1008.37 1008.61 1008.77 1008.85 1008.97 1009.17 1009.37 1009.65 1009.93 1010.17 1010.41 1010.65 1010.85 1011.09 1011.37 1011.61 1011.85 1012.09 1012.37 1012.61 1012.85 1013.09 1013.33 1013.57 1013.81 1013.93 1014.09 1014.17
1004.25 1004.21 1004.05 1003.81 1003.65 1003.73 1003.81 1003.85 1003.89 1003.93 1004.01 1004.01 1004.09 1004.13 1004.25 1004.33 1004.45 1004.53 1004.65 1004.81 1004.93 1005.05 1005.21 1005.37 1005.53 1005.65 1005.81 1005.97 1006.13 1006.29 1006.45 1006.65 1006.81 1006.97 1007.17 1007.33 1007.53 1007.73 1007.97 1008.21 1008.45 1008.65 1008.85 1009.01 1009.13 1009.29 1009.49 1009.65 1009.93 1010.13 1010.37 1010.61 1010.85 1011.09 1011.33 1011.57 1011.85 1012.13 1012.37 1012.61 1012.81 1013.05 1013.25 1013.49 1013.65 1013.85 1014.01 1014.09 1014.21
1004.29 1004.17 1003.89 1003.61 1003.57 1003.65 1003.77 1003.81 1003.93 1004.01 1004.09 1004.21 1004.29 1004.37 1004.49 1004.57 1004.69 1004.81 1004.93 1005.05 1005.17 1005.33 1005.49 1005.65 1005.81 1005.93 1006.09 1006.25 1006.45 1006.61 1006.77 1006.89 1007.09 1007.21 1007.41 1007.61 1007.81 1008.05 1008.29 1008.49 1008.77 1009.01 1009.21 1009.29 1009.41 1009.57 1009.73 1009.89 1010.13 1010.37 1010.65 1010.85 1011.09 1011.37 1011.65 1011.89 1012.13 1012.37 1012.65 1012.89 1013.09 1013.29 1013.49 1013.65 1013.81 1013.93 1014.05 1014.09 1014.21
1004.21 1004.01 1003.85 1003.77 1003.77 1003.85 1003.93 1004.09 1004.21 1004.29 1004.41 1004.53 1004.65 1004.69 1004.81 1004.89 1004.97 1005.09 1005.21 1005.37 1005.49 1005.65 1005.81 1005.93 1006.09 1006.25 1006.41 1006.57 1006.69 1006.89 1007.09 1007.21 1007.37 1007.53 1007.69 1007.93 1008.17 1008.45 1008.65 1008.85 1009.09 1009.37 1009.53 1009.61 1009.69 1009.81 1009.93 1010.17 1010.41 1010.69 1010.97 1011.21 1011.49 1011.73 1012.01 1012.25 1012.53 1012.81 1013.09 1013.33 1013.53 1013.65 1013.77 1013.89 1013.93 1014.05 1014.17 1014.25 1014.37
1004.21 1004.09 1004.09 1004.13 1004.21 1004.25 1004.37 1004.49 1004.61 1004.69 1004.81 1004.85 1004.93 1005.01 1005.09 1005.21 1005.33 1005.45 1005.61 1005.69 1005.85 1005.97 1006.09 1006.21 1006.37 1006.53 1006.69 1006.85 1007.05 1007.21 1007.37 1007.57 1007.77 1007.93 1008.13 1008.33 1008.57 1008.81 1008.97 1009.21 1009.45 1009.65 1009.81 1009.81 1009.93 1010.05 1010.25 1010.45 1010.81 1011.09 1011.37 1011.61 1011.85 1012.13 1012.41 1012.65 1012.93 1013.21 1013.49 1013.69 1013.89 1013.97 1014.09 1014.21 1014.29 1014.37 1014.41 1014.53 1014.65
1004.41 1004.49 1004.53 1004.57 1004.65 1004.77 1004.85 1004.93 1005.01 1005.09 1005.13 1005.21 1005.29 1005.37 1005.49 1005.61 1005.77 1005.89 1005.97 1006.09 1006.21 1006.29 1006.41 1006.57 1006.69 1006.89 1007.09 1007.25 1007.45 1007.65 1007.81 1008.01 1008.21 1008.37 1008.53 1008.69 1008.89 1009.09 1009.29 1009.53 1009.77 1009.93 1010.09 1010.17 1010.25 1010.37 1010.61 1010.89 1011.21 1011.53 1011.81 1012.05 1012.33 1012.61 1012.85 1013.09 1013.33 1013.57 1013.81 1014.05 1014.25 1014.37 1014.53 1014.61 1014.69 1014.81 1014.89 1014.93 1015.05
1004.81 1004.89 1004.93 1005.01 1005.09 1005.21 1005.29 1005.33 1005.37 1005.45 1005.53 1005.57 1005.65 1005.81 1005.93 1006.05 1006.17 1006.29 1006.41 1006.53 1006.65 1006.77 1006.89 1007.05 1007.17 1007.37 1007.53 1007.65 1007.85 1008.01 1008.21 1008.37 1008.53 1008.73 1008.85 1008.97 1009.13 1009.29 1009.53 1009.81 1010.13 1010.37 1010.49 1010.53 1010.65 1010.81 1011.05 1011.37 1011.65 1011.93 1012.25 1012.53 1012.81 1013.09 1013.29 1013.45 1013.65 1013.85 1014.09 1014.37 1014.65 1014.81 1014.93 1015.01 1015.09 1015.21 1015.29 1015.33 1015.37
1005.25 1005.33 1005.37 1005.45 1005.53 1005.61 1005.65 1005.69 1005.77 1005.81 1005.89 1005.97 1006.09 1006.25 1006.33 1006.45 1006.61 1006.73 1006.85 1006.93 1007.09 1007.21 1007.37 1007.53 1007.65 1007.77 1007.89 1008.09 1008.21 1008.37 1008.53 1008.73 1008.89 1009.01 1009.17 1009.29 1009.41 1009.57 1009.81 1010.21 1010.57 1010.77 1010.81 1010.89 1011.01 1011.21 1011.53 1011.81 1012.09 1012.37 1012.65 1012.93 1013.25 1013.49 1013.61 1013.73 1013.93 1014.17 1014.45 1014.73 1014.97 1015.17 1015.29 1015.37 1015.41 1015.49 1015.53 1015.57 1015.65
1005.61 1005.65 1005.77 1005.85 1005.93 1006.01 1006.09 1006.09 1006.17 1006.25 1006.33 1006.41 1006.53 1006.69 1006.81 1006.89 1007.01 1007.17 1007.29 1007.37 1007.53 1007.65 1007.77 1007.89 1007.97 1008.09 1008.25 1008.37 1008.53 1008.65 1008.85 1009.01 1009.21 1009.33 1009.49 1009.61 1009.77 1009.93 1010.21 1010.57 1010.93 1011.09 1011.21 1011.25 1011.41 1011.65 1011.93 1012.25 1012.53 1012.77 1013.01 1013.25 1013.53 1013.69 1013.85 1014.01 1014.25 1014.53 1014.81 1015.05 1015.25 1015.41 1015.53 1015.57 1015.61 1015.65 1015.69 1015.77 1015.85
1005.97 1006.05 1006.13 1006.25 1006.33 1006.37 1006.45 1006.53 1006.57 1006.65 1006.73 1006.85 1007.01 1007.13 1007.21 1007.37 1007.49 1007.61 1007.65 1007.73 1007.81 1007.93 1008.09 1008.17 1008.25 1008.37 1008.57 1008.77 1008.93 1009.09 1009.25 1009.41 1009.57 1009.77 1009.93 1010.01 1010.13 1010.37 1010.65 1010.97 1011.25 1011.49 1011.61 1011.65 1011.85 1012.09 1012.37 1012.57 1012.81 1013.05 1013.25 1013.49 1013.69 1013.89 1014.09 1014.29 1014.57 1014.85 1015.09 1015.29 1015.49 1015.61 1015.65 1015.65 1015.73 1015.81 1015.93 1016.09 1016.21
1006.37 1006.45 1006.53 1006.61 1006.69 1006.77 1006.81 1006.85 1006.93 1007.05 1007.17 1007.29 1007.37 1007.53 1007.61 1007.69 1007.85 1007.97 1008.05 1008.05 1008.09 1008.25 1008.37 1008.49 1008.61 1008.81 1009.01 1009.21 1009.45 1009.65 1009.81 1009.85 1009.93 1010.13 1010.33 1010.49 1010.61 1010.81 1011.05 1011.33 1011.65 1011.89 1012.05 1012.13 1012.33 1012.53 1012.69 1012.93 1013.09 1013.29 1013.45 1013.65 1013.85 1014.09 1014.37 1014.61 1014.93 1015.13 1015.37 1015.49 1015.61 1015.69 1015.73 1015.81 1015.93 1016.05 1016.21 1016.37 1016.49
1006.81 1006.85 1006.93 1007.01 1007.09 1007.13 1007.17 1007.21 1007.33 1007.45 1007.57 1007.69 1007.81 1007.89 1007.97 1008.09 1008.25 1008.37 1008.45 1008.45 1008.45 1008.53 1008.69 1008.85 1009.09 1009.37 1009.53 1009.69 1009.89 1010.09 1010.25 1010.29 1010.37 1010.53 1010.73 1010.93 1011.13 1011.29 1011.45 1011.69 1012.01 1012.29 1012.45 1012.57 1012.73 1012.89 1013.05 1013.21 1013.37 1013.49 1013.61 1013.81 1014.05 1014.29 1014.57 1014.85 1015.09 1015.33 1015.49 1015.61 1015.69 1015.81 1015.93 1016.01 1016.17 1016.33 1016.49 1016.61 1016.69
1007.25 1007.29 1007.29 1007.37 1007.41 1007.53 1007.61 1007.65 1007.77 1007.89 1008.01 1008.09 1008.21 1008.29 1008.37 1008.49 1008.61 1008.77 1008.85 1008.89 1008.89 1008.93 1009.09 1009.37 1009.61 1009.85 1010.05 1010.09 1010.25 1010.45 1010.61 1010.77 1010.85 1010.93 1011.09 1011.37 1011.61 1011.73 1011.85 1012.09 1012.37 1012.65 1012.81 1012.93 1013.05 1013.17 1013.33 1013.45 1013.57 1013.69 1013.81 1013.97 1014.21 1014.45 1014.69 1014.97 1015.21 1015.37 1015.53 1015.65 1015.81 1015.97 1016.13 1016.29 1016.45 1016.61 1016.73 1016.85 1016.93
1007.69 1007.69 1007.69 1007.77 1007.85 1007.93 1008.05 1008.13 1008.25 1008.37 1008.45 1008.53 1008.61 1008.73 1008.81 1008.93 1009.05 1009.17 1009.25 1009.33 1009.37 1009.45 1009.65 1009.85 1010.09 1010.29 1010.45 1010.53 1010.61 1010.77 1010.97 1011.17 1011.33 1011.45 1011.61 1011.81 1012.01 1012.13 1012.25 1012.41 1012.69 1012.97 1013.17 1013.29 1013.37 1013.49 1013.61 1013.73 1013.81 1013.93 1014.05 1014.21 1014.41 1014.61 1014.81 1015.01 1015.21 1015.41 1015.61 1015.77 1015.93 1016.13 1016.37 1016.57 1016.65 1016.81 1016.93 1017.05 1017.09
1008.21 1008.21 1008.25 1008.29 1008.37 1008.41 1008.53 1008.65 1008.77 1008.85 1008.93 1008.97 1009.09 1009.21 1009.29 1009.37 1009.45 1009.57 1009.69 1009.81 1009.93 1010.01 1010.17 1010.37 1010.53 1010.73 1010.85 1010.93 1011.05 1011.17 1011.37 1011.53 1011.77 1011.93 1012.09 1012.25 1012.41 1012.53 1012.65 1012.81 1013.05 1013.25 1013.45 1013.61 1013.69 1013.81 1013.89 1014.01 1014.09 1014.17 1014.25 1014.37 1014.57 1014.73 1014.89 1015.05 1015.25 1015.49 1015.73 1015.93 1016.09 1016.25 1016.49 1016.65 1016.81 1016.93 1017.05 1017.13 1017.25
Wind_Speed
10 9 9 8 8 7 7 6 7 7 6 6 6 7 6 6 6 5 5 5 6 6 6 6 6 6 7 9 10 11 12 13 14 14 14 15 14 14 14 13 13 13 13 13 13 13 13 13 10 9 8 8 9 9 8 7 8 9 9 8 7 8 9 10 9 10 10 9 6
11 10 10 9 8 7 6 6 6 7 6 6 6 6 6 6 5 5 5 6 6 6 6 6 6 7 8 10 10 11 12 13 14 15 15 15 14 14 14 13 14 14 14 14 14 12 11 12 10 9 8 8 8 8 8 7 8 8 9 9 7 7 7 8 9 9 9 9 7
11 10 10 9 9 8 7 6 6 7 7 7 6 6 6 5 5 5 5 6 6 7 6 5 5 7 8 10 10 11 12 13 14 15 14 14 14 15 14 13 14 14 14 13 13 12 11 12 10 9 8 8 9 8 8 8 8 8 9 9 7 6 6 6 7 8 7 6 7
10 10 10 10 10 9 8 6 7 7 7 7 7 7 6 6 5 5 5 6 7 7 6 5 5 6 8 9 10 11 12 13 14 15 14 13 14 14 14 13 14 14 14 14 13 13 13 13 10 8 8 9 9 9 7 7 7 7 7 7 6 6 6 6 6 6 6 6 6
10 10 9 9 10 10 8 7 7 7 7 7 7 6 6 5 5 5 5 6 6 6 6 6 5 6 7 9 11 12 13 14 14 14 13 13 14 14 14 14 14 14 14 14 14 14 13 13 9 8 8 9 8 7 7 8 7 7 6 5 5 5 6 6 6 6 5 6 6
9 9 9 8 9 9 7 6 7 7 7 7 7 7 6 5 5 5 6 6 6 6 6 6 6 6 7 9 11 12 13 13 13 13 13 14 13 13 14 14 14 14 13 14 14 14 13 12 8 6 6 7 6 7 8 9 7 7 6 5 5 5 6 7 6 6 6 7 7
8 8 8 8 8 8 7 7 7 7 8 7 8 8 7 6 6 7 7 7 6 6 5 5 6 6 8 9 10 12 12 12 12 13 13 13 13 14 14 14 14 14 14 13 13 13 13 11 7 6 5 5 5 7 8 8 7 7 7 7 6 6 6 7 6 6 7 9 10
7 8 8 8 8 8 8 8 8 8 8 7 7 8 8 7 7 8 8 7 6 5 5 5 6 7 8 9 10 12 12 13 12 13 13 13 14 14 14 14 13 13 13 12 13 13 12 10 6 6 6 5 5 6 8 9 9 9 8 8 6 6 6 6 6 6 8 10 10
6 7 8 8 8 9 9 9 9 8 8 7 7 8 8 7 8 8 8 6 5 5 5 5 6 7 8 10 11 12 12 12 12 13 12 12 13 14 13 13 13 12 11 11 13 13 12 8 6 6 6 5 6 7 9 11 11 10 9 8 7 7 7 7 7 8 9 10 10
6 7 8 8 9 9 10 10 9 8 8 8 8 8 7 7 8 8 7 5 4 5 5 6 6 7 8 10 11 11 11 11 11 12 12 12 13 13 13 12 12 11 10 11 11 11 11 8 7 7 7 6 8 9 10 11 11 11 9 7 8 9 9 8 9 9 9 9 9
7 7 7 7 9 10 10 10 8 7 8 8 7 7 7 8 9 8 7 4 5 5 6 6 6 7 7 9 10 10 11 11 10 11 11 12 12 13 13 12 11 11 11 11 10 9 9 8 9 9 9 8 9 10 11 12 12 11 10 9 10 11 11 10 9 8 8 8 8
6 7 7 7 8 9 9 8 6 6 7 7 6 7 7 8 9 8 7 6 6 6 6 6 6 6 6 6 9 10 10 11 11 11 11 12 13 13 13 12 12 11 11 11 9 8 8 9 10 11 11 10 9 9 10 12 12 12 12 11 12 12 11 11 10 8 7 7 8
5 6 6 7 7 8 7 6 5 6 6 7 7 7 7 8 8 8 7 7 6 5 5 6 6 5 5 5 7 9 10 11 11 11 11 11 12 13 13 12 12 12 11 10 9 8 9 10 11 12 12 11 9 9 10 12 12 13 13 13 12 12 11 11 10 9 8 8 8
5 6 6 6 7 6 6 6 6 6 7 8 8 8 7 7 7 7 7 7 6 5 5 5 5 4 4 5 7 9 11 11 11 11 11 11 11 11 11 11 11 11 11 10 9 10 10 11 11 12 12 12 11 10 10 11 12 12 13 13 13 12 12 11 10 10 9 9 9
5 6 6 6 6 6 6 7 6 6 7 8 8 7 7 6 6 6 6 7 6 6 5 5 4 3 4 7 8 10 12 11 11 11 11 11 11 11 10 10 11 11 10 10 10 11 11 12 12 12 12 12 12 11 11 10 11 11 12 12 13 13 12 11 11 10 10 10 9
5 5 6 6 6 6 7 7 5 5 6 7 7 6 6 5 5 6 6 6 6 6 5 4 4 4 5 8 10 11 12 11 11 11 11 11 11 11 11 11 11 11 11 12 11 11 11 11 12 12 12 12 12 12 11 11 11 11 12 12 12 12 12 11 11 10 10 10 9
5 5 6 6 7 7 7 6 5 5 5 6 6 6 5 5 5 5 6 6 5 4 4 5 4 5 7 9 10 11 11 11 10 10 11 11 12 12 12 12 12 12 12 13 13 12 12 12 12 12 12 12 12 12 12 11 11 12 12 12 12 12 11 11 11 11 10 9 8
6 6 7 7 8 7 6 5 5 5 5 5 5 5 5 5 5 5 5 4 4 4 5 6 6 7 8 10 9 9 9 10 10 10 11 11 12 12 12 12 12 12 13 13 13 13 13 13 12 12 12 11 11 11 11 12 12 12 12 12 12 12 12 12 11 10 9 9 8
5 6 7 7 6 5 5 5 5 5 5 5 5 5 5 5 4 3 2 2 3 4 5 7 7 8 9 10 10 9 8 9 11 11 11 11 11 12 12 12 12 13 13 13 13 13 13 13 13 13 12 12 11 11 11 12 12 12 12 12 12 12 12 12 11 10 9 8 7
4 4 4 4 4 4 4 4 4 4 4 4 5 5 4 3 2 1 1 1 3 5 6 8 8 8 9 11 10 10 9 8 10 12 12 11 11 12 12 13 13 13 13 13 13 13 13 13 13 13 13 13 13 13 13 12 12 12 12 11 12 12 12 12 11 10 9 8 7
4 4 4 3 3 4 4 3 3 3 3 3 3 2 1 2 2 1 2 3 5 7 8 9 10 10 10 11 11 11 10 8 10 11 12 11 12 12 12 12 12 12 12 12 12 13 13 13 13 14 14 14 14 14 13 12 12 13 12 12 12 12 12 11 10 10 9 8 7
6 5 5 4 3 3 3 3 2 2 1 1 1 0 1 1 1 3 4 5 7 9 10 11 11 11 11 11 12 11 10 9 10 11 11 11 11 11 11 11 12 12 12 13 13 13 14 14 14 14 14 14 14 13 13 13 13 13 14 13 13 12 12 11 10 9 9 8 7
7 7 7 6 6 5 4 3 1 0 0 1 1 1 2 3 5 6 6 7 9 11 11 11 11 11 11 12 12 12 12 11 11 11 11 11 12 12 11 11 12 12 12 11 12 13 13 14 14 14 14 14 14 14 13 14 14 14 14 14 14 13 12 11 10 10 9 9 8
8 8 7 6 7 5 4 2 1 1 2 3 4 5 6 6 6 6 7 10 11 12 11 10 10 11 12 12 12 13 13 13 13 13 13 13 12 12 12 11 11 11 10 10 11 12 12 12 12 13 13 13 13 13 13 13 13 13 14 14 14 13 12 11 11 10 10 9 8
7 6 5 4 4 3 3 3 4 5 6 7 7 7 7 6 6 7 10 12 12 12 12 11 11 11 11 11 12 12 13 13 14 14 14 14 13 12 11 10 9 9 9 10 15 16 16 14 12 12 12 13 13 13 13 13 13 14 14 14 14 13 12 12 11 11 10 10 9
4 3 2 2 4 6 8 8 9 9 9 8 7 7 6 7 8 10 11 13 13 13 12 12 11 10 10 11 12 12 12 12 13 13 14 14 14 13 11 10 9 9 9 13 18 20 20 19 17 15 13 12 13 13 13 13 13 14 14 14 13 13 12 12 11 11 11 11 11
3 4 5 5 7 10 11 11 10 9 9 8 8 9 9 9 10 11 12 13 13 12 12 11 11 10 10 11 12 13 12 11 12 13 14 14 14 14 13 11 9 9 11 18 21 22 22 22 21 18 15 12 12 12 12 12 13 13 13 12 12 12 12 12 13 12 12 12 12
5 6 6 3 6 9 10 10 9 9 10 11 11 11 12 12 12 12 12 12 13 12 11 10 10 9 9 9 11 13 13 12 12 12 13 14 14 14 13 11 11 12 16 22 23 24 24 24 23 21 18 14 12 12 12 12 12 11 11 11 11 11 12 12 12 12 12 12 11
6 4 1 8 11 12 12 12 12 12 13 13 13 13 13 13 13 13 13 13 13 12 10 9 8 8 9 10 11 12 13 13 12 12 13 15 15 15 15 14 15 17 21 25 25 25 25 24 24 22 19 16 12 10 9 10 10 9 9 9 9 9 10 10 10 10 11 11 11
2 4 9 13 13 13 13 13 14 14 13 13 13 13 13 13 13 13 13 13 13 12 10 9 9 10 11 11 12 12 12 12 12 13 15 16 16 16 15 15 15 17 21 25 25 25 25 25 24 22 20 17 14 11 9 9 9 8 8 7 7 8 8 8 10 10 10 10 11
7 10 13 14 14 14 14 14 14 14 13 13 13 14 14 14 14 14 13 13 13 12 12 12 13 13 13 13 13 13 13 13 14 14 15 17 17 17 17 17 17 18 20 24 25 25 25 24 23 21 19 17 13 11 9 9 9 9 8 7 8 8 8 8 8 9 9 10 10
12 13 13 13 14 14 14 14 14 14 14 15 15 15 15 15 14 14 13 13 13 14 14 15 15 15 15 15 15 15 15 15 15 15 15 16 17 18 18 17 17 18 20 24 24 24 24 23 22 21 19 17 14 12 11 10 10 9 9 10 10 10 9 8 8 9 10 10 10
13 13 13 14 14 14 14 14 14 14 15 15 15 16 16 15 15 14 14 13 13 14 15 15 15 15 16 16 16 16 16 16 16 17 17 17 18 18 18 17 16 17 20 23 23 23 23 22 21 20 19 17 13 12 11 10 10 9 10 11 10 10 10 10 10 10 10 11 10
14 14 14 14 14 14 15 15 15 15 15 16 16 15 15 15 15 15 14 13 13 13 14 14 14 15 15 16 16 16 16 15 16 16 16 17 17 17 16 14 12 15 19 22 23 23 22 22 21 20 19 16 12 11 10 11 10 10 11 11 10 10 10 10 11 11 11 12 11
14 14 14 14 15 15 15 15 15 15 16 16 16 15 15 15 15 14 14 13 13 13 14 14 14 15 15 16 16 16 17 17 16 16 16 15 16 17 17 15 14 16 20 21 22 22 22 21 21 20 18 14 11 10 11 12 12 12 12 12 11 11 11 11 11 12 12 12 12
14 15 15 15 15 15 15 15 15 16 16 16 16 16 15 15 14 14 13 14 14 15 15 15 15 16 16 16 16 16 16 16 16 15 15 15 16 16 16 15 15 17 19 20 21 21 21 21 20 19 16 12 10 9 10 11 11 12 12 12 11 11 11 11 12 12 12 11 11
14 15 15 15 15 15 15 15 16 16 16 16 16 15 15 14 14 13 13 14 15 16 16 16 16 16 16 16 15 14 14 15 15 15 15 14 15 15 15 15 15 16 17 19 20 20 20 20 19 17 14 11 10 10 10 10 10 10 11 12 11 11 11 11 11 11 11 10 10
14 15 15 15 15 15 15 15 16 16 16 16 15 14 14 13 13 12 12 13 14 15 16 16 16 15 15 15 14 14 14 14 15 15 15 14 14 14 14 14 14 14 15 17 19 19 19 19 18 16 14 11 11 10 10 9 9 9 10 10 10 11 11 10 9 10 10 10 10
14 14 15 15 15 16 16 16 16 16 15 15 14 14 13 13 12 12 12 12 14 15 16 16 15 14 14 14 14 14 14 14 14 15 14 14 13 13 13 14 13 13 13 16 17 18 18 18 17 16 14 12 10 9 9 9 10 10 10 10 10 11 11 10 9 9 10 11 12
14 14 15 16 16 16 16 16 16 15 14 14 14 14 14 13 13 12 12 12 14 14 15 15 15 14 13 13 14 14 15 14 14 14 14 14 13 13 13 13 13 12 13 14 16 16 16 16 16 15 14 11 10 9 9 9 10 10 10 10 10 10 10 9 8 8 9 10 11
14 15 16 16 16 16 16 17 16 15 15 15 15 14 13 13 13 13 13 13 13 13 13 14 14 14 13 12 13 14 15 15 14 14 14 13 13 13 12 12 12 12 12 13 14 14 15 14 14 13 12 9 9 8 8 9 10 11 11 10 9 9 9 9 8 8 9 9 10
Wind_Direction
219 221 221 219 217 216 214 213 215 220 225 228 232 233 231 225 217 209 205 206 211 213 213 211 211 210 209 207 202 199 198 199 199 199 198 196 192 189 186 182 175 170 166 166 171 175 179 180 180 182 184 188 186 184 182 178 176 176 175 171 168 166 164 162 159 157 155 153 148
213 216 219 217 215 213 211 210 211 215 220 223 230 232 230 223 215 208 205 207 211 213 212 208 208 210 210 205 200 197 196 196 197 197 196 194 190 187 184 179 173 169 166 165 171 176 179 180 180 182 185 188 185 182 178 174 173 173 172 167 162 159 159 157 155 153 151 147 142
207 212 215 215 211 208 207 207 209 213 217 221 227 230 229 221 214 209 206 208 211 213 213 208 206 210 211 205 199 195 194 193 194 194 193 190 187 185 182 176 173 169 165 164 172 177 180 180 181 183 186 185 183 179 174 170 168 169 168 164 156 152 151 148 147 146 143 139 137
203 208 212 213 210 207 204 203 207 211 215 219 224 227 227 221 213 209 209 212 213 212 210 206 209 212 211 205 197 193 190 191 192 191 188 185 185 183 180 174 173 169 165 164 173 179 181 181 181 184 186 182 180 176 170 165 163 163 162 157 150 146 144 139 138 137 135 134 134
200 206 209 211 208 205 201 199 205 210 214 218 221 222 220 216 211 210 211 213 214 211 206 204 207 213 213 207 195 189 187 189 191 188 184 180 180 179 177 174 173 169 165 166 174 179 182 182 181 183 183 178 175 170 164 159 156 155 152 142 140 139 137 134 133 132 131 131 128
199 204 207 208 206 202 198 195 205 213 218 218 218 217 214 208 205 208 212 214 213 210 206 203 206 214 215 207 193 186 185 187 188 185 179 175 176 175 174 174 172 168 165 169 175 179 181 181 178 175 173 169 164 160 157 154 150 147 143 135 133 132 131 132 131 131 130 129 127
198 200 201 200 200 198 195 192 203 214 221 221 217 214 210 203 203 210 216 217 211 206 202 199 205 213 214 204 189 183 182 184 184 181 177 173 174 174 174 173 170 167 166 171 176 180 180 177 171 163 158 153 150 151 151 148 144 140 137 132 129 127 127 130 129 128 129 130 130
192 194 194 193 194 194 193 194 203 213 220 221 216 212 207 201 206 214 219 218 209 201 196 198 206 215 215 201 185 180 180 181 180 178 175 172 174 174 173 170 167 166 168 174 178 178 176 172 163 153 147 143 141 144 145 143 138 135 131 128 124 123 124 127 126 127 129 131 133
183 187 189 188 189 190 192 195 203 214 223 224 217 210 204 200 209 218 222 215 207 200 198 200 207 216 215 197 180 176 177 178 177 175 173 171 172 172 170 166 166 166 169 176 176 173 168 160 151 143 138 135 135 138 139 138 134 130 127 124 123 122 121 122 125 126 128 131 136
174 181 185 185 186 188 191 194 202 216 228 230 217 206 199 200 211 220 222 211 202 201 203 204 208 214 210 192 175 172 174 174 172 171 170 171 171 169 167 164 166 169 172 174 168 162 157 148 140 134 131 127 131 133 134 134 130 127 126 123 123 122 121 120 122 125 128 133 140
169 177 182 185 184 187 190 192 201 218 230 229 212 200 196 202 213 217 217 207 202 203 206 208 210 211 203 186 171 169 170 169 167 168 170 172 170 167 164 162 166 170 170 164 156 150 146 140 135 131 128 125 128 130 131 129 126 125 124 123 123 123 122 122 122 124 128 134 136
167 175 180 183 183 185 187 191 205 222 227 216 201 196 199 207 211 211 209 203 203 205 209 212 211 208 200 186 173 169 166 163 163 167 171 173 171 167 163 160 165 166 161 151 145 140 137 135 133 130 129 126 127 128 129 127 125 125 125 124 124 124 124 126 125 125 126 129 125
166 174 178 180 181 182 186 197 215 221 215 199 192 196 203 208 208 205 203 201 200 202 207 214 211 204 198 203 184 171 163 160 163 167 171 171 169 165 161 157 161 157 151 142 137 133 131 131 130 128 128 127 126 127 128 128 128 128 127 126 125 126 127 129 129 127 124 121 116
166 172 175 177 179 182 191 210 219 213 200 189 189 195 203 207 203 201 199 199 196 196 201 210 205 195 198 227 201 175 160 158 163 167 168 164 164 161 156 154 153 148 141 134 129 127 126 126 126 126 125 124 124 125 127 129 129 129 128 128 128 129 131 132 131 128 123 117 112
166 170 172 175 180 189 203 216 214 202 191 187 188 193 199 203 198 197 197 197 193 192 193 197 189 185 202 231 207 176 158 157 161 164 163 158 157 155 151 149 143 137 131 126 123 122 122 123 124 124 124 124 125 126 127 127 127 127 127 128 130 131 132 133 131 126 120 115 112
167 169 172 179 189 201 210 213 203 191 185 185 186 190 195 198 196 196 197 196 192 187 181 177 174 184 205 221 197 171 155 155 157 158 156 152 152 150 147 143 135 129 124 122 121 121 121 122 123 124 124 125 127 127 126 124 123 122 123 125 128 129 130 129 125 120 115 113 116
176 177 181 190 201 208 209 200 187 181 181 181 182 187 194 198 198 196 194 191 184 172 164 166 177 191 198 199 178 160 151 152 153 152 150 148 147 145 142 136 130 127 125 124 124 124 123 122 123 123 123 124 124 124 123 120 119 119 119 121 123 123 123 120 115 112 110 112 118
187 188 190 197 204 203 197 181 174 174 176 176 177 185 196 205 199 191 183 176 163 159 165 176 186 188 182 169 153 147 147 147 147 146 145 142 140 138 134 130 128 127 127 127 127 126 126 125 125 123 121 119 118 117 116 115 115 115 116 117 116 114 112 108 105 105 108 113 119
187 184 184 188 189 183 173 164 166 169 172 172 176 184 193 197 185 168 150 152 158 173 181 183 181 171 157 142 138 140 144 141 140 139 137 134 131 129 127 126 126 127 127 126 125 125 125 125 123 120 117 114 112 110 109 110 110 110 110 109 106 104 102 100 99 100 105 110 114
155 154 154 154 150 146 145 149 160 168 172 173 177 181 181 169 125 92 94 206 191 187 183 175 163 149 138 133 137 139 139 132 131 131 130 127 125 124 124 124 124 124 123 122 122 121 121 121 119 116 114 112 110 108 107 106 105 104 102 100 98 97 96 97 96 97 99 102 103
96 94 92 93 105 116 125 135 149 162 170 170 171 168 140 82 51 355 264 230 194 176 165 155 145 138 134 135 136 135 131 122 123 123 123 121 120 119 120 120 120 119 118 118 118 118 117 116 115 113 111 109 109 108 107 105 103 101 98 95 94 93 94 95 96 96 95 95 93
76 73 71 69 73 81 93 110 124 141 164 170 148 76 22 17 291 254 236 205 169 154 145 139 135 134 133 133 131 128 123 117 117 117 116 115 114 114 114 114 114 114 114 115 115 115 114 112 110 108 107 106 105 106 106 106 104 101 98 96 95 94 94 95 96 95 94 91 88
63 61 54 47 40 40 46 68 75 66 297 280 267 255 242 238 237 226 203 165 144 136 132 130 130 129 127 125 123 121 118 115 114 113 111 110 109 109 109 108 109 110 111 113 114 112 111 108 105 103 103 103 103 104 104 105 104 103 101 100 98 97 96 96 96 96 93 91 87
55 53 46 33 23 18 13 357 305 266 258 257 245 233 226 224 214 186 154 135 128 125 125 126 124 121 118 116 116 116 115 115 114 112 110 108 107 106 105 102 103 105 108 110 113 113 110 106 103 101 101 102 103 103 103 104 104 104 103 103 102 101 100 99 98 98 96 95 93
58 60 52 26 357 318 271 251 240 237 236 238 233 224 212 197 168 140 125 119 118 118 119 119 116 113 111 111 111 111 112 113 112 111 109 107 105 103 100 98 99 101 104 107 111 110 109 107 106 106 106 106 105 105 104 104 104 105 105 105 105 105 104 103 102 101 101 100 98
54 51 26 314 258 236 226 225 224 222 221 220 208 189 166 146 128 118 112 110 110 111 111 111 110 108 106 107 107 107 107 107 108 107 107 106 103 101 98 97 98 100 103 107 109 108 106 106 107 108 109 109 108 107 105 104 104 105 105 106 107 108 108 108 107 106 104 102 101
0 335 308 269 226 210 206 207 205 198 186 171 152 137 125 116 108 105 104 104 104 103 102 102 102 102 101 101 102 102 102 100 101 102 102 102 102 101 99 98 98 100 103 106 106 105 105 105 105 106 107 107 106 106 106 105 104 104 104 106 108 110 111 112 112 110 107 105 104
330 315 298 239 169 162 163 164 152 138 126 118 113 110 106 102 99 98 99 99 99 98 96 95 96 96 95 95 96 97 97 97 97 98 99 98 99 99 98 98 98 100 103 105 104 103 102 102 101 101 101 101 101 102 103 104 104 103 104 106 108 111 112 113 113 112 111 110 108
309 307 63 102 103 106 108 106 101 96 93 93 95 97 97 97 95 95 95 95 95 94 93 93 93 92 91 92 93 94 94 95 95 96 97 97 96 96 96 96 97 99 101 102 101 100 99 98 97 96 97 97 98 99 99 100 100 100 100 102 106 108 111 113 113 114 113 111 107
322 79 88 84 81 79 79 78 79 81 82 85 86 88 89 89 89 90 90 91 91 91 91 92 92 91 91 92 92 92 92 92 93 94 95 95 95 94 93 93 94 96 98 98 97 96 95 94 94 94 94 95 96 96 95 96 96 96 95 95 95 97 100 104 107 108 108 106 102
83 83 80 77 75 73 73 75 77 79 80 80 81 81 82 82 83 84 86 88 88 89 89 90 90 90 90 90 90 90 90 91 91 92 92 94 94 93 91 91 91 92 93 94 94 94 94 93 94 94 94 94 94 94 94 94 94 94 91 88 84 84 85 86 88 90 93 94 94
80 79 78 77 76 76 76 77 78 79 79 79 79 79 79 79 80 80 82 84 85 86 87 87 88 88 89 89 89 90 90 91 92 92 93 94 94 92 90 88 87 88 90 92 92 93 94 94 95 95 95 94 94 94 94 94 92 90 86 82 80 79 78 79 79 79 81 83 87
78 77 77 77 77 77 77 77 78 78 78 78 78 79 79 79 79 79 79 79 81 83 85 86 87 89 91 92 92 91 91 91 92 92 93 93 93 91 88 86 86 88 91 92 93 94 95 96 97 97 96 94 93 92 93 92 89 86 83 80 79 80 80 81 82 82 83 85 86
79 78 78 78 77 77 77 77 77 77 77 77 78 79 80 80 80 80 79 79 80 82 84 85 87 89 90 91 92 92 91 90 89 89 89 89 89 88 87 86 88 92 94 96 96 97 98 99 99 98 97 95 93 91 90 88 85 83 82 82 81 82 83 86 88 88 89 90 90
78 78 78 77 77 77 77 77 77 77 77 78 78 79 79 80 81 82 82 83 84 84 84 85 86 86 85 85 86 88 88 88 86 85 84 84 84 85 86 88 92 96 98 99 100 101 102 102 102 101 99 97 94 91 88 86 84 83 84 84 84 85 86 87 88 88 87 88 90
77 78 78 77 77 78 78 78 79 79 79 80 80 81 81 81 81 83 86 87 87 86 85 84 83 82 82 81 81 83 85 87 86 84 82 81 82 84 87 89 93 97 100 103 104 106 106 106 105 104 101 97 94 90 88 85 85 86 87 88 88 88 87 86 85 85 85 87 91
76 77 78 78 78 78 79 79 80 81 81 82 82 83 83 83 83 84 85 87 87 86 84 81 80 80 80 82 82 82 83 86 87 86 84 82 84 87 90 92 95 98 102 106 108 109 109 109 108 106 103 98 95 93 91 89 89 90 90 90 89 88 86 84 83 83 85 88 92
74 76 78 78 78 78 79 79 80 81 82 82 81 81 82 83 82 82 82 83 85 84 83 80 79 79 81 83 84 84 83 84 86 87 87 85 86 90 93 95 96 99 103 107 109 110 110 110 109 106 104 100 98 97 96 95 96 95 94 92 88 85 82 81 81 83 85 87 91
71 74 76 78 78 78 78 78 79 79 80 80 79 79 79 79 80 79 79 79 81 82 82 80 80 80 81 83 84 83 82 81 83 85 86 87 88 90 93 96 98 100 103 106 108 108 109 109 107 105 103 101 101 101 102 102 102 100 98 94 90 86 84 83 84 86 87 88 89
67 70 72 74 75 76 76 76 76 76 77 77 77 77 77 77 78 77 76 76 77 79 80 80 80 80 80 81 82 82 82 80 80 81 83 86 87 89 91 95 97 98 100 102 104 105 106 106 105 104 103 102 103 104 106 106 104 101 98 96 94 92 90 89 90 90 90 88 87
65 67 69 71 72 73 74 75 74 74 74 75 75 75 76 76 76 76 76 75 76 77 78 80 80 80 79 78 80 81 81 80 79 80 81 84 84 86 89 93 96 97 97 98 100 101 101 101 101 101 101 102 105 107 108 108 106 103 102 101 101 101 100 98 96 93 91 89 86